Tracking 31027 objects as of 18-Jul-2025
HD Live streaming from Space Station
objects crossing your sky now

STARLINK-5691

Track STARLINK-5691 now!
10-day predictions
STARLINK-5691 is classified as:


NORAD ID: 55478
Int'l Code: 2023-015AF
Perigee: 565.4 km
Apogee: 567.0 km
Inclination: 43.0 °
Period: 95.8 minutes
Semi major axis: 6937 km
RCS: Unknown
Launch date: February 2, 2023
Source: United States (US)
Launch site: AIR FORCE EASTERN TEST RANGE (AFETR)
Your satellite tracking list
Your tracking list is empty




NASA's NSSDC Master Catalog

Two Line Element Set (TLE):
1 55478U 23015AF  25198.26220512  .00000765  00000-0  71716-4 0  9999
2 55478  43.0028 152.7374 0001149 261.9284  98.1428 15.02532417135487
Source of the keplerian elements: AFSPC